Back to catalog

STARLINK-34480

AliveCommunicationsVLEO
NORAD 64427·PAYLOAD·🇺🇸 United States

Launched Jun 17, 2025 from Vandenberg Space Force Base

Loading…

Next Passes (next 24 hours)

TLE

FreshSource: CelesTrak SupGP

Epoch: Sep 14, 2026, 14:59 UTC

1 64427C 25129R   26257.62479167  .00006743  00000+0  23464-3 0  2574
2 64427  69.9997 316.4272 0003214 275.6033 290.9962 15.29563617    18

Track STARLINK-34480 in real time with AllMySat

Download on the App Store